2015-02-05 00:03:29 r, 16.97m,0000000015Hz,0000031633c,0000000.069s, 000.9C,00002195
2015-02-05 00:13:29 r, 16.84m,0000000016Hz,0000028273c,0000000.061s, 000.9C,00002195
2015-02-05 00:23:29 r, 16.86m,0000000016Hz,0000028575c,0000000.062s, 000.9C,00002195
2015-02-05 00:33:29 r, 16.67m,0000000020Hz,0000023937c,0000000.052s, 000.9C,00002195
2015-02-05 00:43:29 r, 16.07m,0000000033Hz,0000013971c,0000000.030s, 000.9C,00002195
2015-02-05 00:53:29 r, 16.37m,0000000025Hz,0000018405c,0000000.040s, 000.9C,00002195
2015-02-05 01:03:29 r, 16.56m,0000000022Hz,0000021883c,0000000.047s, 000.9C,00002195
2015-02-05 01:13:29 r, 16.24m,0000000029Hz,0000016352c,0000000.035s, 000.9C,00002195
2015-02-05 01:23:29 r, 15.65m,0000000049Hz,0000009508c,0000000.021s, 000.9C,00002195
2015-02-05 01:33:29 r, 15.48m,0000000056Hz,0000008123c,0000000.018s, 000.9C,00002195
2015-02-05 01:43:29 r, 14.86m,0000000101Hz,0000004579c,0000000.010s, 000.9C,00002195
2015-02-05 01:53:29 r, 15.09m,0000000082Hz,0000005660c,0000000.012s, 001.2C,00002195
2015-02-05 02:03:29 r, 15.17m,0000000075Hz,0000006075c,0000000.013s, 001.2C,00002195
2015-02-05 02:13:29 r, 15.00m,0000000087Hz,0000005222c,0000000.011s, 001.6C,00002195
2015-02-05 02:23:29 r, 14.93m,0000000094Hz,0000004922c,0000000.011s, 001.9C,00002195
2015-02-05 02:33:29 r, 15.33m,0000000065Hz,0000007055c,0000000.015s, 002.2C,00002195
2015-02-05 02:43:29 r, 14.67m,0000000119Hz,0000003867c,0000000.008s, 002.5C,00002195
2015-02-05 02:53:29 r, 15.48m,0000000056Hz,0000008126c,0000000.018s, 002.9C,00002195
2015-02-05 03:03:29 r, 15.10m,0000000080Hz,0000005715c,0000000.012s, 002.9C,00002195
2015-02-05 03:13:29 r, 15.87m,0000000040Hz,0000011608c,0000000.025s, 002.9C,00002195
2015-02-05 03:23:29 r, 15.10m,0000000081Hz,0000005726c,0000000.012s, 002.9C,00002195
2015-02-05 03:33:29 r, 15.92m,0000000038Hz,0000012157c,0000000.026s, 003.2C,00002195
2015-02-05 03:43:29 r, 16.97m,0000000014Hz,0000031891c,0000000.069s, 003.2C,00002195
2015-02-05 03:53:29 r, 17.25m,0000000011Hz,0000041696c,0000000.090s, 003.2C,00002195
2015-02-05 04:03:29 r, 17.29m,0000000011Hz,0000043083c,0000000.093s, 003.2C,00002195
2015-02-05 04:13:29 r, 17.13m,0000000012Hz,0000037262c,0000000.081s, 003.2C,00002195
2015-02-05 04:23:29 r, 16.22m,0000000029Hz,0000016055c,0000000.035s, 003.2C,00002195
2015-02-05 04:33:29 r, 16.93m,0000000015Hz,0000030762c,0000000.067s, 003.5C,00002195
2015-02-05 04:43:29 r, 16.75m,0000000018Hz,0000026113c,0000000.057s, 003.5C,00002195
2015-02-05 04:53:29 r, 17.06m,0000000013Hz,0000034748c,0000000.075s, 003.5C,00002195
2015-02-05 05:03:29 r, 16.80m,0000000017Hz,0000027362c,0000000.059s, 003.5C,00002195
2015-02-05 05:13:29 r, 17.31m,0000000010Hz,0000043966c,0000000.095s, 003.5C,00002195
2015-02-05 05:23:29 r, 17.47m,0000000009Hz,0000050582c,0000000.110s, 003.5C,00002195
2015-02-05 05:33:29 r, 17.49m,0000000009Hz,0000051771c,0000000.112s, 003.5C,00002195
2015-02-05 05:43:29 r, 17.51m,0000000009Hz,0000052750c,0000000.114s, 003.5C,00002195
2015-02-05 05:53:29 r, 17.53m,0000000009Hz,0000053755c,0000000.117s, 003.5C,00002195
2015-02-05 06:03:29 r, 17.55m,0000000009Hz,0000054652c,0000000.119s, 003.5C,00002195
2015-02-05 06:13:29 r, 17.56m,0000000008Hz,0000054816c,0000000.119s, 003.5C,00002195
2015-02-05 06:23:29 r, 17.58m,0000000008Hz,0000055811c,0000000.121s, 003.5C,00002195
2015-02-05 06:33:29 r, 17.57m,0000000008Hz,0000055555c,0000000.121s, 003.8C,00002195
2015-02-05 06:43:29 r, 17.49m,0000000009Hz,0000051544c,0000000.112s, 003.8C,00002195
2015-02-05 06:53:29 r, 17.17m,0000000012Hz,0000038440c,0000000.083s, 003.8C,00002195
2015-02-05 07:03:29 r, 16.34m,0000000026Hz,0000017972c,0000000.039s, 003.8C,00002195
2015-02-05 07:13:29 r, 14.77m,0000000109Hz,0000004192c,0000000.009s, 003.8C,00002195
2015-02-05 07:23:29 r, 12.74m,0000000710Hz,0000000000c,0000000.000s, 003.8C,00002195
2015-02-05 07:33:29 r, 10.76m,0000004434Hz,0000000000c,0000000.000s, 003.8C,00002195
2015-02-05 07:43:29 r, 09.03m,0000021740Hz,0000000000c,0000000.000s, 003.8C,00002195
2015-02-05 07:53:29 r, 07.75m,0000070899Hz,0000000000c,0000000.000s, 003.8C,00002195
2015-02-05 08:03:29 r, 06.87m,0000158840Hz,0000000000c,0000000.000s, 003.8C,00002195
2015-02-05 08:13:29 r, 06.29m,0000273051Hz,0000000000c,0000000.000s, 004.1C,00002195
2015-02-05 08:23:29 r, 05.88m,0000397220Hz,0000000000c,0000000.000s, 004.5C,00002195
2015-02-05 08:33:29 r, 00.00m,0000518532Hz,0000000000c,0000000.000s, 004.5C,00002195
2015-02-05 08:43:29 r, 00.00m,0000561211Hz,0000000000c,0000000.000s, 005.1C,00002195
2015-02-05 08:53:29 r, 00.00m,0000561275Hz,0000000000c,0000000.000s, 005.8C,00002195
2015-02-05 09:03:29 r, 00.00m,0000561389Hz,0000000000c,0000000.000s, 006.4C,00002195
2015-02-05 09:13:29 r, 00.00m,0000561438Hz,0000000000c,0000000.000s, 006.7C,00002195
2015-02-05 09:23:29 r, 00.00m,0000561539Hz,0000000000c,0000000.000s, 007.7C,00002195
2015-02-05 09:33:29 r, 00.00m,0000561735Hz,0000000000c,0000000.000s, 008.0C,00002195
2015-02-05 09:43:29 r, 00.00m,0000561763Hz,0000000000c,0000000.000s, 008.7C,00002195
2015-02-05 09:53:29 r, 00.00m,0000561762Hz,0000000000c,0000000.000s, 009.0C,00002195
2015-02-05 10:03:29 r, 00.00m,0000561766Hz,0000000000c,0000000.000s, 008.7C,00002195
2015-02-05 10:13:29 r, 00.00m,0000561843Hz,0000000000c,0000000.000s, 009.6C,00002195
2015-02-05 10:23:29 r, 00.00m,0000562100Hz,0000000000c,0000000.000s, 011.2C,00002195
2015-02-05 10:33:29 r, 00.00m,0000562296Hz,0000000000c,0000000.000s, 012.2C,00002195
2015-02-05 10:43:29 r, 00.00m,0000562378Hz,0000000000c,0000000.000s, 013.2C,00002195
2015-02-05 10:53:29 r, 00.00m,0000562516Hz,0000000000c,0000000.000s, 014.1C,00002195
2015-02-05 11:03:29 r, 00.00m,0000562641Hz,0000000000c,0000000.000s, 014.5C,00002195
2015-02-05 11:13:29 r, 00.00m,0000562549Hz,0000000000c,0000000.000s, 015.1C,00002195
2015-02-05 11:23:29 r, 00.00m,0000562750Hz,0000000000c,0000000.000s, 015.7C,00002195
2015-02-05 11:33:29 r, 00.00m,0000562695Hz,0000000000c,0000000.000s, 015.7C,00002195
2015-02-05 11:43:29 r, 00.00m,0000562744Hz,0000000000c,0000000.000s, 015.4C,00002195
2015-02-05 11:53:29 r, 00.00m,0000562770Hz,0000000000c,0000000.000s, 015.7C,00002195
2015-02-05 12:03:29 r, 00.00m,0000562817Hz,0000000000c,0000000.000s, 016.1C,00002195
2015-02-05 12:13:29 r, 00.00m,0000562823Hz,0000000000c,0000000.000s, 016.4C,00002195
2015-02-05 12:23:29 r, 00.00m,0000562951Hz,0000000000c,0000000.000s, 016.7C,00002195
2015-02-05 12:33:29 r, 00.00m,0000562946Hz,0000000000c,0000000.000s, 017.0C,00002195
2015-02-05 12:43:29 r, 00.00m,0000563014Hz,0000000000c,0000000.000s, 017.0C,00002195
2015-02-05 12:53:29 r, 00.00m,0000563116Hz,0000000000c,0000000.000s, 017.4C,00002195
2015-02-05 13:03:29 r, 00.00m,0000562990Hz,0000000000c,0000000.000s, 017.0C,00002195
2015-02-05 13:13:29 r, 00.00m,0000563024Hz,0000000000c,0000000.000s, 017.4C,00002195
2015-02-05 13:23:29 r, 00.00m,0000563046Hz,0000000000c,0000000.000s, 017.0C,00002195
2015-02-05 13:33:29 r, 00.00m,0000562907Hz,0000000000c,0000000.000s, 017.0C,00002195
2015-02-05 13:43:29 r, 00.00m,0000562877Hz,0000000000c,0000000.000s, 016.7C,00002195
2015-02-05 13:53:29 r, 00.00m,0000562904Hz,0000000000c,0000000.000s, 016.4C,00002195
2015-02-05 14:03:29 r, 00.00m,0000562798Hz,0000000000c,0000000.000s, 016.4C,00002195
2015-02-05 14:13:29 r, 00.00m,0000562776Hz,0000000000c,0000000.000s, 016.1C,00002195
2015-02-05 14:23:29 r, 00.00m,0000562734Hz,0000000000c,0000000.000s, 016.1C,00002195
2015-02-05 14:33:29 r, 00.00m,0000562738Hz,0000000000c,0000000.000s, 016.1C,00002195
2015-02-05 14:43:29 r, 00.00m,0000562662Hz,0000000000c,0000000.000s, 015.7C,00002195
2015-02-05 14:53:29 r, 00.00m,0000562578Hz,0000000000c,0000000.000s, 015.1C,00002195
2015-02-05 15:03:29 r, 00.00m,0000562337Hz,0000000000c,0000000.000s, 013.8C,00002195
2015-02-05 15:13:29 r, 00.00m,0000562265Hz,0000000000c,0000000.000s, 012.5C,00002195
2015-02-05 15:23:29 r, 00.00m,0000562099Hz,0000000000c,0000000.000s, 011.9C,00002195
2015-02-05 15:33:29 r, 00.00m,0000562034Hz,0000000000c,0000000.000s, 011.6C,00002195
2015-02-05 15:43:29 r, 00.00m,0000562011Hz,0000000000c,0000000.000s, 011.2C,00002195
2015-02-05 15:53:29 r, 00.00m,0000561896Hz,0000000000c,0000000.000s, 010.9C,00002195
2015-02-05 16:03:29 r, 00.00m,0000561867Hz,0000000000c,0000000.000s, 010.6C,00002195
2015-02-05 16:13:29 r, 00.00m,0000561777Hz,0000000000c,0000000.000s, 010.6C,00002195
2015-02-05 16:23:29 r, 00.00m,0000561810Hz,0000000000c,0000000.000s, 010.3C,00002195
2015-02-05 16:33:29 r, 00.00m,0000561826Hz,0000000000c,0000000.000s, 009.9C,00002195
2015-02-05 16:43:29 r, 00.00m,0000561782Hz,0000000000c,0000000.000s, 009.9C,00002195
2015-02-05 16:53:29 r, 00.00m,0000479033Hz,0000000000c,0000000.000s, 009.9C,00002195
2015-02-05 17:03:29 r, 05.97m,0000364417Hz,0000000000c,0000000.000s, 009.6C,00002195
2015-02-05 17:13:29 r, 06.39m,0000248571Hz,0000000000c,0000000.000s, 009.3C,00002195
2015-02-05 17:23:29 r, 07.04m,0000136827Hz,0000000000c,0000000.000s, 009.3C,00002195
2015-02-05 17:33:29 r, 08.03m,0000054769Hz,0000000000c,0000000.000s, 009.0C,00002195
2015-02-05 17:43:29 r, 09.38m,0000015840Hz,0000000000c,0000000.000s, 008.7C,00002195
2015-02-05 17:53:29 r, 11.15m,0000003094Hz,0000000000c,0000000.000s, 008.7C,00002195
2015-02-05 18:03:29 r, 13.15m,0000000488Hz,0000000000c,0000000.000s, 008.3C,00002195
2015-02-05 18:13:29 r, 15.17m,0000000076Hz,0000006038c,0000000.013s, 008.3C,00002195
2015-02-05 18:23:29 r, 16.57m,0000000021Hz,0000022128c,0000000.048s, 008.0C,00002195
2015-02-05 18:33:29 r, 17.41m,0000000010Hz,0000048005c,0000000.104s, 008.0C,00002195
2015-02-05 18:43:29 r, 17.68m,0000000008Hz,0000061260c,0000000.133s, 007.7C,00002195
2015-02-05 18:53:29 r, 17.84m,0000000006Hz,0000071348c,0000000.155s, 007.7C,00002195
2015-02-05 19:03:29 r, 17.86m,0000000007Hz,0000073151c,0000000.159s, 007.7C,00002195
2015-02-05 19:13:29 r, 17.86m,0000000006Hz,0000072233c,0000000.157s, 007.4C,00002195
2015-02-05 19:23:29 r, 17.87m,0000000006Hz,0000073493c,0000000.159s, 007.4C,00002195
2015-02-05 19:33:29 r, 17.86m,0000000007Hz,0000072265c,0000000.157s, 007.4C,00002195
2015-02-05 19:43:29 r, 17.76m,0000000007Hz,0000066297c,0000000.144s, 007.0C,00002195
2015-02-05 19:53:29 r, 17.73m,0000000007Hz,0000064271c,0000000.139s, 007.0C,00002195
2015-02-05 20:03:29 r, 17.66m,0000000008Hz,0000060355c,0000000.131s, 006.7C,00002195
2015-02-05 20:13:29 r, 17.59m,0000000008Hz,0000056769c,0000000.123s, 006.7C,00002195
2015-02-05 20:23:29 r, 17.61m,0000000008Hz,0000057522c,0000000.125s, 006.7C,00002195
2015-02-05 20:33:29 r, 17.55m,0000000009Hz,0000054706c,0000000.119s, 006.7C,00002195
2015-02-05 20:43:29 r, 17.42m,0000000009Hz,0000048453c,0000000.105s, 006.4C,00002195
2015-02-05 20:53:29 r, 17.06m,0000000013Hz,0000034762c,0000000.075s, 006.4C,00002195
2015-02-05 21:03:29 r, 16.89m,0000000015Hz,0000029659c,0000000.064s, 006.4C,00002195
2015-02-05 21:13:29 r, 16.52m,0000000022Hz,0000021187c,0000000.046s, 006.4C,00002195
2015-02-05 21:23:29 r, 16.19m,0000000030Hz,0000015643c,0000000.034s, 006.7C,00002195
2015-02-05 21:33:29 r, 16.18m,0000000030Hz,0000015486c,0000000.034s, 006.7C,00002195
2015-02-05 21:43:29 r, 16.53m,0000000022Hz,0000021251c,0000000.046s, 006.7C,00002195
2015-02-05 21:53:29 r, 16.57m,0000000021Hz,0000022170c,0000000.048s, 006.7C,00002195
2015-02-05 22:03:29 r, 16.55m,0000000021Hz,0000021722c,0000000.047s, 006.7C,00002195
2015-02-05 22:13:29 r, 16.52m,0000000022Hz,0000021000c,0000000.046s, 006.7C,00002195
2015-02-05 22:23:29 r, 16.43m,0000000024Hz,0000019547c,0000000.042s, 006.4C,00002195
2015-02-05 22:33:29 r, 16.60m,0000000021Hz,0000022768c,0000000.049s, 006.1C,00002195
2015-02-05 22:43:29 r, 15.99m,0000000035Hz,0000013049c,0000000.028s, 006.1C,00002195
2015-02-05 22:53:29 r, 15.60m,0000000051Hz,0000009134c,0000000.020s, 005.8C,00002195
2015-02-05 23:03:29 r, 15.57m,0000000052Hz,0000008777c,0000000.019s, 005.4C,00002195
2015-02-05 23:13:29 r, 15.53m,0000000054Hz,0000008455c,0000000.018s, 005.1C,00002195
2015-02-05 23:23:29 r, 15.40m,0000000062Hz,0000007500c,0000000.016s, 004.8C,00002195
2015-02-05 23:33:29 r, 15.31m,0000000065Hz,0000006945c,0000000.015s, 004.8C,00002195
2015-02-05 23:43:29 r, 15.27m,0000000069Hz,0000006675c,0000000.014s, 004.5C,00002195
2015-02-05 23:53:29 r, 15.22m,0000000072Hz,0000006364c,0000000.014s, 004.5C,00002195
